Content
SEND FEEDBACK

Daily
Averages
Monthly
Summary
United Kingdom

LONDON, ENGLAND


Home > Europe > United Kingdom > England
Elevation: 203 feet     Latitude: 51 09N     Longitude: 000 11W

WEATHER
 
SELECT A DAY
Number of Records: 292,742;   Date Range: 7/1/96 - 7/24/14
 
SHARE

PRINT THIS DATA

[ ← Previous Day ]
WEATHER ALMANAC - APRIL 10, 2013
[ Next Day → ]
[ °C ]   °F
Weather ElementAverageHighLow
Temperature42.8 °F48.2 °F (1:20 pm)37.4 °F (6:20 am)
Dewpoint39.2 °F42.8 °F (10:20 pm)35.6 °F (6:20 am)
Humidity87.8 %100 % (12:50 am)71 % (1:20 pm)
Barometer29.62 in29.74 in (10:50 am)29.42 in (11:20 pm)
Wind Speed7 mph13.8 mph (10:20 pm)
Weather ElementAverage
Visibility1.9 mi
Wind DirectionSSE (149.8 °)

Weather ElementTotal
Precipitation---
Heating Degree Days22.2 (Base 65)
Averaged from 47 records on April 10, 2013
WEATHER CONDITIONS BREAKOUT
WIND DIRECTION BREAKOUT
WEATHER BY HOUR - APRIL 10, 2013
[ °C ]   °F
Local TimeTemperatureDewpointHumidityBarometerVisibilityWind DirectionWind SpeedGust SpeedPrecipitationEventsConditions
12:50 AM41.0 °F41.0 °F100 %29.56 in1.0 miNNE (20°)4.6 mphDrizzle
1:20 AM41.0 °F41.0 °F100 %29.56 in1.2 miNorth (10°)5.8 mphDrizzle
1:50 AM41.0 °F41.0 °F100 %29.56 in1.0 miNNE (20°)5.8 mphRainRain
2:20 AM41.0 °F41.0 °F100 %29.56 in0.9 miNNE (20°)4.6 mphLight Drizzle
2:50 AM41.0 °F39.2 °F93 %29.56 in1.2 miNNE (20°)3.5 mphHaze
3:20 AM41.0 °F41.0 °F100 %29.59 in1.0 miVariable3.5 mphHaze
3:50 AM41.0 °F39.2 °F93 %29.59 in1.0 miNorth (360°)8.1 mphHaze
4:20 AM41.0 °F39.2 °F93 %29.62 in1.2 miNorth (10°)4.6 mphHaze
4:50 AM41.0 °F39.2 °F93 %29.62 in1.2 miNorth (350°)4.6 mphHaze
5:20 AM39.2 °F37.4 °F93 %29.62 in1.2 miNNW (340°)3.5 mphHaze
5:50 AM39.2 °F37.4 °F93 %29.65 in1.2 miNW (320°)6.9 mphHaze
6:20 AM37.4 °F35.6 °F93 %29.65 in1.1 miNW (320°)8.1 mphHaze
6:50 AM37.4 °F35.6 °F93 %29.68 in1.1 miNW (320°)8.1 mphHaze
7:20 AM37.4 °F35.6 °F93 %29.68 in1.0 miNW (320°)6.9 mphHaze
7:50 AM39.2 °F35.6 °F87 %29.71 in1.0 miNNW (330°)6.9 mphHaze
8:20 AM39.2 °F35.6 °F87 %29.71 in1.2 miNorth (360°)5.8 mphHaze
8:50 AM37.4 °F35.6 °F93 %29.71 in1.3 miNW (320°)4.6 mphHaze
9:20 AM39.2 °F35.6 °F87 %29.71 in1.2 miWNW (290°)4.6 mphHaze
9:50 AM39.2 °F37.4 °F93 %29.71 in1.1 miWNW (300°)4.6 mphHaze
10:20 AM39.2 °F37.4 °F93 %29.71 in1.1 miVariable2.3 mphHaze
10:50 AM41.0 °F37.4 °F87 %29.74 in1.4 miVariable2.3 mphHaze
11:20 AM42.8 °F37.4 °F81 %29.71 in1.4 miVariable2.3 mphHaze
11:50 AM42.8 °F39.2 °F87 %29.71 in1.6 miVariable2.3 mphHaze
12:20 PM44.6 °F39.2 °F81 %29.71 in1.9 miSouth (190°)5.8 mphHaze
12:50 PM46.4 °F39.2 °F76 %29.71 in2.2 miSouth (180°)4.6 mphHaze
1:20 PM48.2 °F39.2 °F71 %29.71 inSouth (190°)6.9 mphHaze
1:50 PM48.2 °F39.2 °F71 %29.71 in3.1 miSouth (170°)6.9 mphHaze
2:20 PM48.2 °F39.2 °F71 %29.68 in3.1 miSouth (170°)8.1 mphHaze
2:50 PM48.2 °F39.2 °F71 %29.68 in4.3 miSouth (180°)6.9 mphMostly Cloudy
3:20 PM48.2 °F39.2 °F71 %29.68 in4.3 miSouth (170°)5.8 mphMostly Cloudy
3:50 PM48.2 °F39.2 °F71 %29.65 in5.0 miSSE (160°)8.1 mphMostly Cloudy
4:20 PM48.2 °F39.2 °F71 %29.65 in4.3 miSE (130°)8.1 mphMostly Cloudy
4:50 PM48.2 °F39.2 °F71 %29.65 in4.3 miSSE (160°)8.1 mphScattered Clouds
5:20 PM46.4 °F39.2 °F76 %29.62 in4.3 miSSE (150°)8.1 mphScattered Clouds
5:50 PM46.4 °F39.2 °F76 %29.62 in4.3 miSE (130°)8.1 mphScattered Clouds
6:20 PM46.4 °F41.0 °F81 %29.62 in3.1 miSE (130°)8.1 mphRainLight Rain
6:50 PM44.6 °F41.0 °F87 %29.59 in2.8 miEast (100°)6.9 mphRainLight Rain
7:20 PM42.8 °F41.0 °F93 %29.56 in2.5 miEast (90°)9.2 mphRainRain
7:50 PM42.8 °F41.0 °F93 %29.56 in2.2 miEast (100°)9.2 mphRainRain
8:20 PM42.8 °F41.0 °F93 %29.53 in1.9 miEast (80°)10.4 mphRainLight Rain
8:50 PM42.8 °F41.0 °F93 %29.53 in1.2 miEast (80°)11.5 mphRainLight Rain
9:20 PM42.8 °F41.0 °F93 %29.50 in1.9 miENE (70°)10.4 mphRainLight Rain
9:50 PM42.8 °F41.0 °F93 %29.47 in1.2 miENE (70°)10.4 mphRainLight Rain
10:20 PM42.8 °F42.8 °F100 %29.47 in1.2 miENE (70°)13.8 mphRainLight Rain
10:50 PM42.8 °F42.8 °F100 %29.44 in1.0 miENE (70°)13.8 mphRainRain
11:20 PM42.8 °F42.8 °F100 %29.42 in1.1 miEast (80°)13.8 mphRainLight Rain
11:50 PM44.6 °F42.8 °F93 %29.42 in1.1 miEast (90°)11.5 mphLight Drizzle
Hourly data recorded from EGKK, located miles away from London, England







STORIES FROM OUR PARTNERS